Regional Weather Roundup
Issued by NWS

Home | Current Version | Previous Version | Text Only | Print | Product List | Glossary On
Versions: 1 2 3 4 5 6 7 8 9 10 11 12 13 14 15 16 17 18 19 20 21 22 23 24 25 26 27 28 29 30 31 32 33 34 35 36 37 38 39 40 41 42 43 44 45 46 47 48 49 50
000
ASPQ40 PGUM 260112
RWRPQ
WEATHER ROUNDUP FOR THE MARIANAS AND MICRONESIA
NATIONAL WEATHER SERVICE TIYAN GU
1100 AM CHST WED NOV 26 2014

GUZ001>004-260200-
MARIANA ISLANDS-

CITY           SKY/WX    TMP DP  RH WIND       PRES   REMARKS
GUAM AIRPORT   SUNNY     88  73  62 E12       29.88F HX  96
ANDERSEN AFB   SUNNY     84  75  74 E13       29.89F HX  92
ROTA AIRPORT   MOSUNNY   84  75  74 E15       29.89F HX  92
TINIAN AP      MOSUNNY   84  77  79 E13       29.88F HX  94
SAIPAN AP      MOSUNNY   86  77  74 E14       29.89F HX  97

$$

PMZ161-260200-
REPUBLIC OF PALAU-

CITY           SKY/WX    TMP DP  RH WIND       PRES   REMARKS
KOROR AP       PTSUNNY   86  79  79 E5        29.80F HX  99
KOROR WSO      CLOUDY    88  77  70 SE7       29.80S HX 100

$$

PMZ171>174-260200-
FEDERATED STATES OF MICRONESIA-

CITY           SKY/WX    TMP DP  RH WIND       PRES   REMARKS
YAP AIRPORT    PTSUNNY   86  79  79 E9        29.80F HX  99
CHUUK AP       CLOUDY    84  79  84 NE8       29.73F HX  96
POHNPEI AP     CLOUDY    86  79  79 NE12      29.71F HX  99
POHNPEI WSO    CLOUDY    86  79  79 E9        29.75F HX  99
KOSRAE AP      PTSUNNY   90  79  70 N12       29.70  HX 105

$$

PMZ181-260200-
REPUBLIC OF THE MARSHALL ISLANDS-

CITY           SKY/WX    TMP DP  RH WIND       PRES   REMARKS
KWAJALEIN AP   SUNNY     86  73  66 E25G31    29.72F HX  93
MAJURO AP      CLOUDY    82  77  83 NE23G29   29.70  HX  91
MAJURO WSO     CLOUDY    84  79  84 E14       29.70S HX  96

$$



USA.gov is the U.S. government's official web portal to all federal, state and local government web resources and services.